SCP
0 0 0 0 0 0 0 0 0 0 0 0 0 0 0 0 0 0 0 0 0 0 0 0 0 0 0 0 0 0 0 0 0 0 0 0 0 0 0 0 0 0 0
0 0 0 0 0 0 0 0 0 0 0 0 0 0 0 0 0 0 0 0 0 0 0 0 0 0 0 0 0 0 0 0 0 0 0 0 0 0 0 0 0 0 0
0 0 0 0 0 0 0 0 0 0 0 0 0 0 0 0 0 0 0 0 0 0 0 0 0 0 0 0 0 0 0 0 0 0 0 0 0 0 0 0 0 0 0
0 0 0 0 0 0 0 0 0 0 0 0 0 0 0 0 0 0 0 0 0 0 0 0 0 0 0 0 0 0 0 0 0 0 0 0 0 0 0 0 0 0 0
0 0 0 0 0 0 0 0 0 0 0 0 0 0 0 0 0 0 0 0 0 0 0 0 0 0 0 0 0 0 0 0 0 0 0 0 0 0 0 0 0 0 0
0 0 0 0 0 0 0 0 0 0 0 0 0 0 0 0 0 0 0 0 0 0 0 0 0 0 0 0 0 0 0 0 0 0 0 0 0 0 0 0 0 0 0
0 0 0 0 0 0 0 0 0 0 0 0 0 0 0 0 0 0 0 0 0 0 0 0 0 0 0 0 0 0 0 0 0 0 0 0 0 0 0 0 0 0 0
0 0 0 0 0 0 0 0 0 0 0 0 0 0 0 0 0 0 0 0 0 0 0 0 0 0 0 0 0 0 0 0 0 0 0 0 0 0 0 0 0 0 0
0 0 0 0 0 0 0 0 0 0 0 0 0 0 0 0 0 0 0 0 0 0 0 0 0 0 0 0 0 0 0 0 0 0 0 0 0 0 0 0 0 0 0
0 0 0 0 0 0 0 0 0 0 0 0 0 0 0 0 0 0 0 0 0 0 0 0 0 0 0 0 0 0 0 0 0 0 0 0 0 0 0 0 0 0 0
0 0 0 0 0 0 0 0 0 0 0 0 0 0 0 0 0 0 0 0 0 0 0 0 0 0 0 0 0 0 0 0 0 0 0 0 0 0 0 0 0 0 0
0 0 0 0 0 0 0 0 0 0 0 0 0 0 0 0 0 0 0 0 0 0 0 0 0 0 0 0 0 0 0 0 0 0 0 0 0 0 0 0 0 0 0
0 0 0 0 0 0 0 0 0 0 0 0 0 0 0 0 0 0 0 0 0 0 0 0 0 0 0 0 0 0 0 0 0 0 0 0 0 0 0 0 0 0 0
0 0 0 0 0 0 0 0 0 0 0 0 0 0 0 0 0 0 0 0 0 0 0 0 0 0 0 0 0 0 0 0 0 0 0 0 0 0 0 0 0 0 0
0 0 0 0 0 0 0 0 0 0 0 0 0 0 0 0 0 0 0 0 0 0 0 0 0 0 0 0 0 0 0 0 0 0 0 0 0 0 0 0 0 0 0
0 0 0 0 0 0 0 0 0 0 0 0 0 0 0 0 0 0 0 0 0 0 0 0 0 0 0 0 0 0 0 0 0 0 0 0 0 0 0 0 0 0 0
0 0 0 0 0 0 0 0 0 0 0 0 0 0 0 0 0 0 0 0 0 0 0 0 0 0 0 0 0 0 0 0 0 0 0 0 0 0 0 0 0 0 0
0 0 0 0 0 0 0 0 0 0 0 0 0 0 0 0 0 0 0 0 0 0 0 0 0 0 0 0 0 0 0 0 0 0 0 0 0 0 0 0 0 0 0
0 0 0 0 0 0 0 0 0 0 0 0 0 0 0 0 0 0 0 0 0 0 0 0 0 0 0 0 0 0 0 0 0 0 0 0 0 0 0 0 0 0 0
0 0 0 0 0 0 0 0 0 0 0 0 0 0 0 0 0 0 0 0 0 0 0 0 0 0 0 0 0 0 0 0 0 0 0 0 0 0 0 0 0 0 0
-0 0 0 0 0 0 0 0 0 0 0 0 0 0 0 0 0 0 0 0 0 0 0 0 0 0 0 0 0 0 0 0 0 0 0 0 0 0 0 0 0 0 0
-0 0 0 0 0 0 0 0 0 0 0 0 0 0 0 0 0 0 0 0 0 0 0 0 0 0 0 0 0 0 0 0 0 0 0 0 0 0 0 0 0 0 0
0 0 0 0 0 0 0 0 0 0 0 0 0 0 0 0 0 0 0 0 0 0 0 0 0 0 0 0 0 0 0 0 0 0 0 0 0 0 0 0 0 0 0
0 0 0 0 0 0 0 0 0 0 0 0 0 0 0 0 0 0 0 0 0 0 0 0 0 0 0 0 0 0 0 0 0 0 0 0 0 0 0 0 0 0 0
0 0 0 0 0 0 0 0 0 0 0 0 0 0 0 0 0 0 0 0 0 0 0 0 0 0 0 0 0 0 0 0 0 0 0 0 0 0 0 0 0 0 0
0 0 0 0 0 0 0 0 0 0 0 0 -0 -0 0 0 0 0 0 0 0 0 0 0 0 0 0 0 0 0 0 0 0 0 0 0 0 0 0 0 0 0 0
Wind_Speed
13 12 13 12 12 12 11 10 10 9 9 9 9 9 9 9 8 7 7 7 7 6 5 5 4 3 2 1 1 1 1 2 3 4 3 4 6 8 9 8 7 7 7
12 12 12 11 11 11 11 9 9 9 9 8 8 8 8 8 7 7 7 7 7 6 6 5 5 4 4 2 1 2 2 3 3 5 4 4 6 8 9 9 8 7 7
11 12 11 11 10 10 9 8 8 8 8 7 7 7 7 7 7 7 6 6 6 5 5 5 5 5 4 3 3 2 2 2 3 4 6 4 5 6 7 8 9 7 8
11 11 10 9 8 8 8 8 7 7 6 6 6 6 5 5 6 6 6 6 6 6 6 5 6 5 5 4 3 3 3 4 4 4 6 6 6 6 5 6 8 7 8
9 9 8 6 7 7 7 6 6 5 5 4 4 4 4 3 4 5 5 6 7 7 7 7 7 8 6 5 4 4 4 4 5 6 7 7 8 7 7 5 8 9 9
8 7 6 6 6 6 5 5 5 4 4 4 4 3 4 3 5 7 6 5 6 7 8 9 8 7 8 9 10 10 9 7 8 7 7 8 10 9 8 7 7 8 6
6 5 5 5 5 4 4 4 4 3 3 3 3 3 3 5 6 6 8 4 5 6 7 7 7 7 9 7 10 13 12 13 11 8 9 10 10 9 8 9 8 8 8
5 4 4 4 3 3 3 3 3 2 2 2 3 3 3 4 7 6 8 5 6 7 7 7 8 8 8 9 9 10 11 10 10 7 8 10 10 10 8 8 8 8 8
4 3 2 2 2 2 2 2 2 2 2 2 2 3 3 5 7 7 7 5 6 8 8 8 8 8 11 11 9 10 11 10 9 9 10 11 12 12 9 5 5 5 6
2 1 1 1 1 1 1 1 1 1 2 2 3 3 3 4 7 8 8 4 6 8 9 9 10 9 12 13 9 8 10 10 9 10 9 8 7 7 6 3 3 4 5
1 1 1 0 0 0 0 1 1 2 3 3 4 4 4 4 6 8 9 5 6 8 8 8 8 13 15 15 11 7 9 10 8 7 6 6 6 5 5 4 3 3 4
1 1 1 1 1 0 1 1 2 2 3 3 3 4 3 4 5 8 10 9 8 7 7 7 9 15 16 15 9 8 10 7 4 4 5 5 5 5 5 6 6 4 5
1 1 2 2 2 1 0 0 1 2 2 2 2 3 4 4 5 9 10 12 12 7 7 12 14 15 13 9 9 10 7 4 4 4 5 4 4 5 5 5 5 5 5
1 2 2 2 2 2 1 1 1 1 1 1 2 3 4 5 5 6 7 8 10 9 8 10 12 10 7 7 7 6 4 4 3 4 4 4 4 4 4 3 3 4 4
2 2 2 2 2 1 1 1 0 1 2 1 1 1 3 5 7 10 8 7 7 7 8 5 5 6 7 7 7 7 5 5 5 4 4 4 5 4 4 3 3 3 4
2 2 2 1 1 1 1 2 3 1 1 1 2 3 3 6 10 11 12 12 12 11 6 5 6 6 7 7 7 7 6 6 6 6 5 4 5 5 5 4 3 3 4
3 3 2 1 0 1 1 1 1 3 3 3 4 5 6 8 9 10 11 12 9 8 5 5 6 6 7 7 7 6 6 7 6 5 5 5 5 4 4 4 4 4 4
2 3 2 1 1 1 1 1 1 1 2 3 4 6 8 9 9 10 10 8 6 6 5 6 6 7 7 7 7 7 7 7 6 6 6 6 5 4 4 5 4 5 4
1 1 1 1 1 1 1 2 1 1 1 2 3 4 7 8 7 8 7 4 5 6 6 6 6 6 7 7 7 6 6 6 7 6 6 6 6 5 5 5 4 5 4
1 1 2 2 2 2 2 2 1 1 1 2 3 3 5 5 5 6 5 5 5 5 6 6 6 6 7 7 7 7 7 6 7 6 6 6 6 5 5 6 5 4 4
1 0 2 3 2 2 1 1 1 1 0 1 2 3 5 3 4 5 5 5 5 5 6 6 6 7 6 6 6 7 8 7 6 6 6 6 6 5 5 4 4 4 4
1 1 2 2 2 2 2 2 1 1 1 1 2 3 5 3 3 4 4 5 5 4 5 5 5 5 6 6 7 7 7 7 7 7 7 7 6 5 5 4 4 4 5
1 2 2 2 2 3 3 2 2 1 1 1 2 2 3 3 3 4 4 5 5 5 5 5 6 6 6 6 5 6 6 7 7 7 7 6 6 5 4 5 6 5 6
1 2 3 3 3 3 2 2 1 1 1 1 2 2 3 3 3 4 4 4 5 5 5 5 6 8 11 9 7 6 6 7 8 6 7 5 5 5 4 5 5 6 5
2 3 3 3 3 3 3 2 2 1 1 1 2 2 2 3 3 4 4 4 6 6 7 7 6 8 11 12 11 10 11 11 8 6 5 4 5 5 6 6 5 6 6
2 3 3 3 3 3 3 2 1 1 1 1 1 2 2 2 3 3 4 5 5 6 7 6 9 11 12 10 13 14 12 11 11 9 6 4 6 6 6 5 7 6 7
Wind_Direction
66 68 70 69 70 71 71 72 75 73 71 72 71 68 64 57 52 53 49 42 40 30 22 19 9 354 348 334 308 269 235 216 253 278 272 286 293 296 306 304 297 292 288
70 70 69 69 69 71 71 69 73 74 71 72 73 70 65 58 51 49 41 36 30 19 6 359 350 345 333 313 292 273 256 233 241 278 290 293 288 295 298 300 300 299 295
73 73 70 68 69 70 70 70 71 74 72 69 70 67 61 54 48 42 36 28 18 6 353 344 332 330 322 312 299 283 272 264 240 263 287 288 288 293 300 299 300 298 298
73 74 71 67 69 70 70 70 70 71 70 66 65 62 55 48 41 32 26 19 8 357 347 335 325 314 302 303 302 298 292 289 279 277 288 294 291 292 289 299 307 310 305
78 76 72 70 69 68 66 65 64 64 66 62 59 47 36 35 29 28 20 13 2 353 346 339 327 324 335 334 327 314 306 298 298 296 296 296 296 299 300 299 301 308 302
83 80 75 71 68 66 65 64 62 56 48 45 39 27 16 12 10 19 21 10 356 348 341 336 329 332 338 337 332 325 314 301 295 289 288 289 292 293 294 296 299 303 303
85 82 78 76 71 64 64 60 51 38 27 20 10 4 352 342 355 1 6 4 343 335 331 328 327 325 329 322 320 318 311 301 288 276 276 279 286 290 295 297 294 293 290
87 84 82 82 77 65 58 45 24 14 6 349 340 337 335 339 352 354 353 352 332 326 321 314 310 312 316 322 317 311 307 302 295 283 267 275 279 284 282 283 288 290 286
96 93 89 93 85 67 50 24 6 3 359 347 337 343 343 339 355 0 0 337 327 324 319 314 310 308 309 318 317 309 307 306 306 296 284 282 283 286 287 283 289 298 307
122 124 118 120 116 83 31 6 5 14 9 11 21 14 5 358 4 6 0 339 328 325 320 316 314 310 309 314 311 301 301 306 315 320 319 317 313 311 311 285 284 298 306
159 122 83 50 289 215 52 39 44 52 43 35 25 12 11 2 353 352 350 341 325 319 315 317 315 316 315 314 311 289 282 293 304 308 313 319 326 330 332 326 295 267 285
88 49 6 343 326 45 102 69 61 62 52 31 14 3 353 345 341 335 335 332 325 311 306 309 308 312 313 314 314 307 308 309 309 320 326 327 329 330 327 322 313 291 259
50 350 337 338 344 352 141 129 74 67 61 28 9 355 341 336 331 330 330 329 331 322 304 307 311 313 317 320 323 328 335 340 335 332 328 318 310 308 312 318 320 322 314
330 331 335 341 344 6 48 128 134 127 89 34 359 347 337 332 334 340 336 332 332 331 326 321 320 321 331 332 333 342 347 339 327 318 313 308 311 320 325 329 322 329 328
316 316 321 329 336 13 48 54 152 203 199 184 285 311 327 329 321 323 324 324 323 319 322 328 345 349 352 350 345 342 343 349 346 334 323 322 325 330 327 330 324 323 328
286 295 298 309 339 63 71 34 31 51 9 279 259 272 282 285 308 324 331 331 332 336 345 351 349 348 345 342 340 338 339 345 339 331 327 326 326 326 326 330 333 333 335
251 268 274 272 201 131 102 66 16 6 9 3 350 338 326 324 332 339 340 336 341 352 8 356 349 343 339 338 338 336 330 330 327 328 330 331 328 325 327 331 335 336 338
259 262 242 222 179 156 143 119 93 45 0 342 339 342 349 351 353 355 350 351 357 5 1 351 343 339 337 337 338 336 332 333 337 337 336 336 337 332 333 336 336 335 335
263 243 200 150 133 128 122 114 100 76 16 337 336 341 351 349 355 1 4 10 354 348 348 344 340 338 336 336 336 334 332 332 336 336 337 339 339 338 340 344 343 341 345
277 225 159 131 122 122 120 113 105 83 18 349 345 342 342 355 359 352 357 352 350 345 342 340 338 339 337 336 336 336 337 338 342 342 338 337 337 339 343 348 353 353 356
248 194 142 128 133 139 127 118 116 106 32 349 338 340 353 350 344 342 344 348 349 345 342 338 337 340 341 339 339 339 339 336 339 338 335 335 336 340 344 352 359 4 4
189 165 144 143 141 136 122 113 109 98 33 4 348 347 0 6 353 350 348 346 346 346 343 337 335 338 337 336 334 333 332 334 337 337 333 331 334 340 349 1 7 9 13
173 151 137 130 132 130 116 106 106 96 52 14 359 358 358 0 358 355 351 349 350 351 350 348 343 342 342 335 329 325 324 323 319 315 317 323 333 344 354 7 14 17 19
152 146 138 130 126 122 120 116 107 91 60 25 14 8 360 355 357 358 356 353 353 354 353 352 349 346 347 344 338 334 329 319 312 304 310 320 338 352 5 15 18 20 23
124 129 130 132 134 129 124 120 107 91 62 36 23 12 1 1 3 2 359 357 357 357 358 356 352 349 348 348 349 343 333 328 329 330 330 347 8 18 23 26 28 31 33
111 118 122 127 131 134 136 136 130 118 80 42 24 12 6 6 3 360 358 358 357 355 355 353 353 355 354 353 350 344 340 342 346 349 355 16 29 28 26 32 37 38 40